Pittsfield, IL

12:26 AM CDT on April 25, 2017 (GMT -0500)
Pittsfield Penstone Municipal

Weather History for KPPQ - December, 2004

Change the Weather History Date:

Friday, December 31, 2004

  Actual Average (KUIN) Record (KUIN)
Temperature  
Mean Temperature 58 °F -  
Max Temperature 62 °F 29 °F 64 °F (1951)
Min Temperature 51 °F 16 °F -10 °F (1976)
Degree Days  
Heating Degree Days 8    
Growing Degree Days 8 (Base 50)    
Moisture  
Dew Point 51 °F    
Average Humidity 77    
Maximum Humidity 94    
Minimum Humidity 59    
Precipitation  
Precipitation 0.00 in - - ()
Sea Level Pressure  
Sea Level Pressure 30.02 in    
Wind  
Wind Speed 10 mph (WSW)    
Max Wind Speed 14 mph    
Max Gust Speed 20 mph    
Visibility 10 miles    
Events      
Averages and records for this station are not official NWS values.
T = Trace of Precipitation, MM = Missing Value Source: NWS Daily Summary

Daily Weather History Graph

Daily Weather History Graph

Search for Another Location

Airport or City:

Trip Planner

Search our weather history database for the weather conditions in past years. The results will help you decide how hot, cold, wet, or windy it might be!

Date:

Astronomy

Dec. 31, 2004 Rise Set
Actual Time 7:23 AM CST 4:49 PM CST
Civil Twilight 6:53 AM CST 5:19 PM CST
Nautical Twilight 6:19 AM CST 5:53 PM CST
Astronomical Twilight 5:47 AM CST 6:25 PM CST
Moon 9:39 PM CST (12/31) 10:41 AM CST (12/31)
Length of Visible Light 10h 25m
Length of Day
9h 25m
Waning Gibbous, 78% of the Moon is Illuminated
Dec 31
Waning Gibbous
Jan 3
Last Quarter
Jan 10
New
Jan 17
First Quarter
Jan 25
Full

Hourly Weather History & Observations

Time (CST) Temp. Windchill Dew Point Humidity Pressure Visibility Wind Dir Wind Speed Gust Speed Precip Events Conditions
12:05 AM 60.8 °F - 53.6 °F 77% 29.89 in 10.0 mi WSW 12.7 mph 19.6 mph N/A   Overcast
12:25 AM 60.8 °F - 53.6 °F 77% 29.89 in 10.0 mi WSW 12.7 mph 19.6 mph N/A   Mostly Cloudy
12:45 AM 60.8 °F - 53.6 °F 77% 29.89 in 10.0 mi WSW 13.8 mph 18.4 mph N/A   Scattered Clouds
1:05 AM 59.0 °F - 53.6 °F 82% 29.89 in 10.0 mi WSW 12.7 mph 19.6 mph N/A   Clear
1:25 AM 59.0 °F - 53.6 °F 82% 29.89 in 10.0 mi WSW 12.7 mph 19.6 mph N/A   Clear
1:45 AM 59.0 °F - 53.6 °F 82% 29.90 in 10.0 mi WSW 12.7 mph 18.4 mph N/A   Clear
2:05 AM 59.0 °F - 53.6 °F 82% 29.90 in 10.0 mi WSW 10.4 mph - N/A   Clear
2:27 AM 59.0 °F - 53.6 °F 82% 29.90 in 10.0 mi WSW 10.4 mph 19.6 mph N/A   Clear
2:47 AM 57.2 °F - 53.6 °F 88% 29.90 in 10.0 mi WSW 12.7 mph 17.3 mph N/A   Clear
3:05 AM 59.0 °F - 53.6 °F 82% 29.91 in 10.0 mi WSW 11.5 mph 17.3 mph N/A   Clear
3:25 AM 57.2 °F - 53.6 °F 88% 29.91 in 10.0 mi WSW 12.7 mph - N/A   Clear
3:45 AM 57.2 °F - 53.6 °F 88% 29.91 in 10.0 mi WSW 10.4 mph 16.1 mph N/A   Clear
4:05 AM 57.2 °F - 53.6 °F 88% 29.91 in 10.0 mi WSW 10.4 mph - N/A   Clear
4:25 AM 57.2 °F - 51.8 °F 82% 29.91 in 10.0 mi WSW 9.2 mph - N/A   Clear
4:45 AM 57.2 °F - 51.8 °F 82% 29.92 in 10.0 mi WSW 9.2 mph - N/A   Clear
5:05 AM 57.2 °F - 51.8 °F 82% 29.93 in 10.0 mi WSW 10.4 mph 17.3 mph N/A   Clear
5:25 AM 57.2 °F - 51.8 °F 82% 29.93 in 10.0 mi WSW 10.4 mph 17.3 mph N/A   Clear
5:45 AM 55.4 °F - 51.8 °F 88% 29.94 in 10.0 mi SW 9.2 mph - N/A   Clear
6:05 AM 55.4 °F - 51.8 °F 88% 29.95 in 10.0 mi WSW 11.5 mph - N/A   Clear
6:25 AM 55.4 °F - 51.8 °F 88% 29.96 in 10.0 mi WSW 11.5 mph - N/A   Clear
6:47 AM 55.4 °F - 51.8 °F 88% 29.96 in 10.0 mi WSW 11.5 mph - N/A   Clear
7:05 AM 55.4 °F - 51.8 °F 88% 29.97 in 10.0 mi WSW 12.7 mph - N/A   Clear
7:25 AM 53.6 °F - 51.8 °F 94% 29.98 in 10.0 mi SW 10.4 mph - N/A   Clear
7:45 AM 53.6 °F - 51.8 °F 94% 30.00 in 10.0 mi WSW 6.9 mph - N/A   Clear
8:05 AM 53.6 °F - 51.8 °F 94% 30.02 in 10.0 mi SW 8.1 mph - N/A   Clear
8:25 AM 53.6 °F - 51.8 °F 94% 30.03 in 10.0 mi SW 6.9 mph - N/A   Clear
8:45 AM 55.4 °F - 51.8 °F 88% 30.04 in 10.0 mi WSW 6.9 mph - N/A   Clear
9:05 AM 55.4 °F - 53.6 °F 94% 30.05 in 10.0 mi WSW 6.9 mph - N/A   Clear
9:25 AM 57.2 °F - 53.6 °F 88% 30.06 in 10.0 mi WSW 11.5 mph - N/A   Clear
9:45 AM 57.2 °F - 53.6 °F 88% 30.07 in 10.0 mi WSW 11.5 mph 16.1 mph N/A   Clear
10:05 AM 57.2 °F - 51.8 °F 82% 30.08 in 10.0 mi WSW 11.5 mph 17.3 mph N/A   Clear
10:25 AM 57.2 °F - 51.8 °F 82% 30.08 in 10.0 mi West 6.9 mph - N/A   Clear
10:45 AM 59.0 °F - 51.8 °F 77% 30.09 in 10.0 mi West 10.4 mph - N/A   Clear
11:05 AM 60.8 °F - 50.0 °F 68% 30.09 in 10.0 mi West 9.2 mph - N/A   Clear
11:27 AM 60.8 °F - 50.0 °F 68% 30.09 in 10.0 mi West 8.1 mph - N/A   Clear
11:45 AM 60.8 °F - 48.2 °F 63% 30.08 in 10.0 mi West 10.4 mph - N/A   Clear
12:05 PM 60.8 °F - 48.2 °F 63% 30.09 in 10.0 mi West 8.1 mph - N/A   Clear
12:25 PM 60.8 °F - 48.2 °F 63% 30.08 in 10.0 mi WSW 4.6 mph - N/A   Clear
12:45 PM 60.8 °F - 48.2 °F 63% 30.08 in 10.0 mi WSW 6.9 mph - N/A   Clear
1:07 PM 62.6 °F - 48.2 °F 59% 30.08 in 10.0 mi WSW 6.9 mph - N/A   Clear
1:25 PM 62.6 °F - 48.2 °F 59% 30.07 in 10.0 mi WSW 8.1 mph - N/A   Clear
1:45 PM 62.6 °F - 48.2 °F 59% 30.07 in 10.0 mi WSW 8.1 mph - N/A   Clear
2:05 PM 62.6 °F - 50.0 °F 63% 30.07 in 10.0 mi WSW 9.2 mph - N/A   Clear
2:25 PM 62.6 °F - 50.0 °F 63% 30.08 in 10.0 mi WSW 9.2 mph - N/A   Clear
2:45 PM 62.6 °F - 48.2 °F 59% 30.08 in 10.0 mi WSW 10.4 mph - N/A   Clear
3:05 PM 62.6 °F - 48.2 °F 59% 30.08 in 10.0 mi SW 8.1 mph - N/A   Clear
3:25 PM 62.6 °F - 48.2 °F 59% 30.09 in 10.0 mi WSW 8.1 mph - N/A   Clear
3:45 PM 62.6 °F - 48.2 °F 59% 30.10 in 10.0 mi WSW 5.8 mph - N/A   Clear
4:05 PM 60.8 °F - 48.2 °F 63% 30.11 in 10.0 mi Calm Calm - N/A   Clear
4:25 PM 60.8 °F - 48.2 °F 63% 30.11 in 10.0 mi Calm Calm - N/A   Clear
4:45 PM 59.0 °F - 48.2 °F 67% 30.12 in 10.0 mi Calm Calm - N/A   Clear
5:05 PM 57.2 °F - 48.2 °F 72% 30.13 in 10.0 mi Calm Calm - N/A   Clear
5:25 PM 53.6 °F - 46.4 °F 77% 30.14 in 10.0 mi ENE 3.5 mph - N/A   Clear
5:45 PM 55.4 °F - 46.4 °F 72% 30.15 in 10.0 mi West 4.6 mph - N/A   Clear
6:05 PM 53.6 °F - 46.4 °F 77% 30.16 in 10.0 mi Calm Calm - N/A   Clear
6:25 PM 51.8 °F - 44.6 °F 76% 30.17 in 10.0 mi NE 8.1 mph - N/A   Clear
6:45 PM 53.6 °F - 42.8 °F 67% 30.18 in 10.0 mi ENE 4.6 mph - N/A   Clear
7:05 PM 51.8 °F - 41.0 °F 67% 30.18 in 10.0 mi ENE 6.9 mph - N/A   Clear
7:25 PM 50.0 °F - 39.2 °F 66% 30.19 in 10.0 mi ENE 6.9 mph - N/A   Clear
7:45 PM 48.2 °F - 35.6 °F 62% 30.19 in 10.0 mi NE 10.4 mph - N/A   Clear
8:05 PM 48.2 °F - 33.8 °F 58% 30.20 in 10.0 mi ENE 11.5 mph 16.1 mph N/A   Scattered Clouds
8:25 PM 46.4 °F 41.5 °F 32.0 °F 57% 30.22 in 10.0 mi NE 10.4 mph - N/A   Mostly Cloudy
8:48 PM 46.4 °F 41.5 °F 30.2 °F 53% 30.23 in 10.0 mi ENE 10.4 mph - N/A   Overcast
9:05 PM 44.6 °F 39.7 °F 30.2 °F 57% 30.23 in 10.0 mi NE 9.2 mph - N/A   Overcast
9:45 PM 44.6 °F 42.2 °F 30.2 °F 57% 30.25 in 10.0 mi NE 4.6 mph - N/A   Overcast
10:07 PM 44.6 °F 40.7 °F 30.2 °F 57% 30.25 in 10.0 mi ENE 6.9 mph - N/A   Overcast
10:27 PM 44.6 °F 40.7 °F 30.2 °F 57% 30.26 in 10.0 mi ENE 6.9 mph - N/A   Overcast
10:45 PM 42.8 °F 38.6 °F 30.2 °F 61% 30.26 in 10.0 mi NE 6.9 mph - N/A Rain Light Rain
11:05 PM 41.0 °F 35.2 °F 32.0 °F 70% 30.27 in 7.0 mi NE 9.2 mph - 0.02 in Rain Light Rain
11:25 PM 39.2 °F 35.0 °F 32.0 °F 75% 30.28 in 10.0 mi ENE 5.8 mph - 0.02 in Rain Light Rain
11:45 PM 39.2 °F 33.0 °F 33.8 °F 81% 30.27 in 10.0 mi NE 9.2 mph - 0.02 in Rain Light Rain